Weather History for KAKO - August, 2012

Change the Weather History Date:

Saturday, August 18, 2012

  Actual Average Record
Temperature  
Mean Temperature 68 °F 72 °F  
Max Temperature 81 °F 86 °F 100 °F (1938)
Min Temperature 54 °F 58 °F 47 °F (1968)
Degree Days  
Heating Degree Days 0    
Month to date heating degree days 5  
Cooling Degree Days 3    
Month to date cooling degree days 169  
Growing Degree Days 19 (Base 50)    
Moisture  
Dew Point 38 °F    
Average Humidity 49    
Maximum Humidity 83    
Minimum Humidity 15    
Precipitation  
Precipitation T in 0.07 in 1.55 in (1979)
Month to date precipitation 0.11 1.51  
Year to date precipitation 6.32 12.70  
Sea Level Pressure  
Sea Level Pressure 30.00 in    
Wind  
Wind Speed 14 mph (NE)    
Max Wind Speed 26 mph    
Max Gust Speed 32 mph    
Visibility 10 miles    
Events Rain , Thunderstorm    
T = Trace of Precipitation, MM = Missing Value Source: NWS Daily Summary

Daily Weather History Graph

Daily Weather History Graph

Search for Another Location

Airport or City:

Trip Planner

Search our weather history database for the weather conditions in past years. The results will help you decide how hot, cold, wet, or windy it might be!

Date:

Astronomy

Aug. 18, 2012 Rise Set
Actual Time 6:07 AM MDT 7:44 PM MDT
Civil Twilight 5:38 AM MDT 8:13 PM MDT
Nautical Twilight 5:03 AM MDT 8:48 PM MDT
Astronomical Twilight 4:26 AM MDT 9:25 PM MDT
Moon 7:18 AM MDT (8/18) 8:01 PM MDT (8/18)
Length of Visible Light 14h 34m
Length of Day
13h 37m
New Moon, 1% of the Moon is Illuminated
Aug 18
New Moon
Aug 24
First Quarter
Aug 31
Full
Sep 8
Last Quarter
Sep 15
New

Hourly Weather History & Observations

Time (MDT) Temp. Dew Point Humidity Pressure Visibility Wind Dir Wind Speed Gust Speed Precip Events Conditions
12:53 AM 66.0 °F 48.0 °F 52% 29.92 in 10.0 mi SSE 13.8 mph - N/A   Mostly Cloudy
1:38 AM 62.6 °F 50.0 °F 63% 30.11 in 10.0 mi East 8.1 mph - 0.00 in Rain , Thunderstorm Light Thunderstorms and Rain
1:53 AM 63.0 °F 48.9 °F 60% 29.94 in 10.0 mi SE 15.0 mph - 0.00 in   Overcast
2:53 AM 62.1 °F 45.0 °F 53% 29.94 in 10.0 mi SSE 10.4 mph - N/A   Mostly Cloudy
3:27 AM 60.8 °F 46.4 °F 59% 30.15 in 10.0 mi West 18.4 mph - 0.00 in Thunderstorm Overcast
3:48 AM 60.8 °F 46.4 °F 59% 30.09 in 10.0 mi South 20.7 mph 28.8 mph 0.00 in Thunderstorm Scattered Clouds
3:53 AM 60.1 °F 46.0 °F 60% 29.91 in 10.0 mi South 16.1 mph 28.8 mph 0.00 in   Partly Cloudy
4:53 AM 57.9 °F 51.1 °F 78% 29.91 in 10.0 mi South 11.5 mph 20.7 mph N/A   Clear
6:53 AM 57.0 °F 51.1 °F 81% 29.98 in 10.0 mi NW 13.8 mph - N/A   Clear
7:53 AM 62.1 °F 51.1 °F 67% 30.00 in 10.0 mi NW 12.7 mph - N/A   Clear
8:53 AM 66.9 °F 43.0 °F 42% 30.02 in 10.0 mi North 12.7 mph - N/A   Clear
9:53 AM 73.0 °F 37.0 °F 27% 30.01 in 10.0 mi NNE 20.7 mph 26.5 mph N/A   Clear
10:53 AM 75.0 °F 33.1 °F 22% 30.01 in 10.0 mi NNE 19.6 mph 28.8 mph N/A   Clear
11:53 AM 77.0 °F 32.0 °F 19% 30.01 in 10.0 mi North 17.3 mph - N/A   Clear
12:53 PM 78.1 °F 30.9 °F 18% 30.00 in 10.0 mi North 15.0 mph 27.6 mph N/A   Clear
1:53 PM 80.1 °F 28.9 °F 15% 29.99 in 10.0 mi North 18.4 mph 25.3 mph N/A   Clear
2:53 PM 81.0 °F 30.0 °F 16% 29.97 in 10.0 mi North 20.7 mph 24.2 mph N/A   Clear
3:53 PM 81.0 °F 30.0 °F 16% 29.96 in 10.0 mi NNW 15.0 mph 28.8 mph N/A   Partly Cloudy
4:53 PM 81.0 °F 30.0 °F 16% 29.96 in 10.0 mi North 17.3 mph 23.0 mph N/A   Clear
5:53 PM 80.1 °F 28.0 °F 15% 29.96 in 10.0 mi North 17.3 mph - N/A   Clear
6:53 PM 77.0 °F 28.0 °F 17% 29.97 in 10.0 mi NE 11.5 mph - N/A   Clear
7:53 PM 70.0 °F 28.9 °F 22% 29.99 in 10.0 mi ENE 10.4 mph - N/A   Clear
8:53 PM 61.0 °F 28.9 °F 30% 30.03 in 10.0 mi East 8.1 mph - N/A   Clear
9:53 PM 59.0 °F 30.9 °F 35% 30.04 in 10.0 mi ESE 5.8 mph - N/A   Clear
10:53 PM 57.0 °F 33.1 °F 40% 30.06 in 10.0 mi SE 8.1 mph - N/A   Clear
11:53 PM 57.9 °F 35.1 °F 42% 30.06 in 10.0 mi SE 8.1 mph - N/A   Clear